Elefsis, Greece

4:27 AM EEST on April 25, 2018 (GMT +0300)
Elefsis Air Base

Weather History for LGEL - October, 2013

Change the Weather History Date:

Tuesday, October 22, 2013

  Actual Average Record
Temperature  
Mean Temperature 64 °F -  
Max Temperature 77 °F 65 °F 82 °F (2001)
Min Temperature 51 °F 51 °F 48 °F (1997)
Degree Days  
Heating Degree Days 1    
Growing Degree Days 14 (Base 50)    
Moisture  
Dew Point 50 °F    
Average Humidity 61    
Maximum Humidity 82    
Minimum Humidity 41    
Precipitation  
Precipitation 0.00 in - - ()
Sea Level Pressure  
Sea Level Pressure 30.15 in    
Wind  
Wind Speed 1 mph ()    
Max Wind Speed 7 mph    
Max Gust Speed -    
Averages and records for this station are not official NWS values.
T = Trace of Precipitation, MM = Missing Value Source: Averaged Metar Reports

Daily Weather History Graph

Daily Weather History Graph

Search for Another Location

Airport or City:

Astronomy

Oct. 22, 2013 Rise Set
Actual Time 7:41 AM EEST 6:38 PM EEST
Civil Twilight 7:14 AM EEST 7:05 PM EEST
Nautical Twilight 6:43 AM EEST 7:36 PM EEST
Astronomical Twilight 6:13 AM EEST 8:06 PM EEST
Moon 9:06 PM EEST (10/22) 10:50 AM EEST (10/22)
Length of Visible Light 11h 51m
Length of Day
10h 57m
Waning Gibbous, 89% of the Moon is Illuminated
Oct 22
Waning Gibbous
Oct 27
Last Quarter
Nov 3
New
Nov 10
First Quarter
Nov 17
Full

Hourly Weather History & Observations

Time (EEST) Temp. Dew Point Humidity Pressure Visibility Wind Dir Wind Speed Gust Speed Precip Events Conditions
12:50 AM 57.2 °F 48.2 °F 72% 30.21 in - Calm Calm - N/A   Clear
2:50 AM 53.6 °F 48.2 °F 82% 30.18 in - North 4.6 mph - N/A   Clear
4:50 AM 53.6 °F 46.4 °F 77% 30.18 in - Calm Calm - N/A   Clear
5:50 AM 51.8 °F 46.4 °F 82% 30.15 in - Calm Calm - N/A   Clear
6:20 AM 53.6 °F 46.4 °F 77% 30.15 in - Calm Calm - N/A   Clear
6:50 AM 51.8 °F 46.4 °F 82% 30.15 in - Calm Calm - N/A   Clear
7:20 AM 51.8 °F 46.4 °F 82% 30.15 in - Calm Calm - N/A   Clear
7:50 AM 53.6 °F 46.4 °F 77% 30.15 in - Calm Calm - N/A   Clear
8:20 AM 53.6 °F 46.4 °F 77% 30.18 in - Calm Calm - N/A   Clear
8:50 AM 55.4 °F 48.2 °F 77% 30.18 in - Calm Calm - N/A   Clear
9:20 AM 60.8 °F 50.0 °F 68% 30.18 in - Calm Calm - N/A   Clear
9:50 AM 66.2 °F 51.8 °F 60% 30.18 in - Calm Calm - N/A   Clear
10:20 AM 68.0 °F 51.8 °F 56% 30.18 in - Calm Calm - N/A   Clear
10:50 AM 69.8 °F 55.4 °F 60% 30.18 in - Calm Calm - N/A   Clear
11:20 AM 69.8 °F 53.6 °F 56% 30.18 in - Calm Calm - N/A   Clear
11:50 AM 71.6 °F 51.8 °F 50% 30.18 in - Calm Calm - N/A   Clear
12:20 PM 71.6 °F 51.8 °F 50% 30.18 in - Calm Calm - N/A   Clear
12:50 PM 73.4 °F 50.0 °F 44% 30.15 in - Calm Calm - N/A   Clear
1:20 PM 73.4 °F 51.8 °F 47% 30.15 in - Calm Calm - N/A   Clear
1:50 PM 73.4 °F 51.8 °F 47% 30.15 in - South 4.6 mph - N/A   Clear
2:20 PM 75.2 °F 53.6 °F 47% 30.12 in - SSW 4.6 mph - N/A   Clear
2:50 PM 75.2 °F 50.0 °F 41% 30.12 in - South 4.6 mph - N/A   Clear
3:20 PM 77.0 °F 51.8 °F 41% 30.12 in - South 5.8 mph - N/A   Clear
3:50 PM 77.0 °F 51.8 °F 41% 30.12 in - South 6.9 mph - N/A   Clear
4:20 PM 75.2 °F 51.8 °F 44% 30.12 in - South 5.8 mph - N/A   Clear
4:50 PM 75.2 °F 53.6 °F 47% 30.12 in - South 5.8 mph - N/A   Clear
5:20 PM 75.2 °F 55.4 °F 50% 30.12 in - South 4.6 mph - N/A   Clear
5:50 PM 73.4 °F 51.8 °F 47% 30.12 in - South 4.6 mph - N/A   Clear
6:20 PM 71.6 °F 53.6 °F 53% 30.12 in - Calm Calm - N/A   Clear
6:50 PM 69.8 °F 51.8 °F 53% 30.12 in - Calm Calm - N/A   Clear
7:20 PM 68.0 °F 53.6 °F 60% 30.12 in - Calm Calm - N/A   Clear
7:50 PM 66.2 °F 53.6 °F 64% 30.12 in - Calm Calm - N/A   Clear
8:20 PM 62.6 °F 53.6 °F 72% 30.12 in - Calm Calm - N/A   Clear
8:50 PM 62.6 °F 51.8 °F 68% 30.15 in - Calm Calm - N/A   Clear
9:20 PM 60.8 °F 50.0 °F 68% 30.15 in - NNW 4.6 mph - N/A   Clear
9:50 PM 60.8 °F 50.0 °F 68% 30.15 in - NNW 5.8 mph - N/A   Clear
10:20 PM 59.0 °F 48.2 °F 67% 30.15 in - NNW 4.6 mph - N/A   Clear
10:50 PM 59.0 °F 48.2 °F 67% 30.15 in - NNW 4.6 mph - N/A   Clear
11:20 PM 59.0 °F 48.2 °F 67% 30.15 in - Calm Calm - N/A   Clear
11:50 PM 59.0 °F 46.4 °F 63% 30.15 in - Calm Calm - N/A   Clear